www.pogodaiklimat.ru
ПОГОДА в Балтиморе
Время
и дата
00:54 26.09
01:54 26.09
02:54 26.09
03:54 26.09
04:54 26.09
05:54 26.09
06:54 26.09
07:54 26.09
08:54 26.09
09:54 26.09
10:54 26.09
11:54 26.09
12:54 26.09
13:54 26.09
14:54 26.09
15:54 26.09
16:54 26.09
17:54 26.09
18:54 26.09
19:54 26.09
20:54 26.09
21:54 26.09
22:54 26.09
23:54 26.09
00:54 27.09
01:54 27.09
02:54 27.09
03:54 27.09
04:54 27.09
05:54 27.09
06:54 27.09
07:54 27.09
08:54 27.09
09:54 27.09
10:54 27.09
11:54 27.09
12:54 27.09
13:54 27.09
14:54 27.09
20:54 27.09
21:54 27.09
03:54 28.09
04:54 28.09
05:54 28.09
06:54 28.09
07:54 28.09
11:54 28.09
12:54 28.09
Ветер
(напр.,м/с)
Видим. Явления Облачность Т
(С)
Тd
(С)
f
(%)
Тe
(С)
Тes
(С)
Комфортность P
(гПа)
Po
(гПа)
Тmin
(С)
Tmax
(С)
R
(мм)
R24
(мм)
S
(см)
<100 м н/о +19.4 +12.2 63 +21 +21 комфорт 1006.4 1005.6 +19.4 +21.7
<100 м н/о +18.3 +12.2 68 +19 +19 1006.2 1005.3
<100 м н/о +17.8 +12.2 70 +18 +18 1006.1 1005.3
<100 м н/о +17.8 +11.7 67 +18 +18 1006.2 1005.3
<100 м н/о +17.8 +11.7 67 +18 +18 1006.3 1005.6
<100 м н/о +16.1 +11.7 75 +16 +16 1006.7 1005.9
<100 м н/о +17.2 +12.2 72 +17 +17 1007.3 1006.6 +16.1 +19.4 3.8
<100 м н/о +19.4 +12.8 66 +21 +21 комфорт 1007.1 1006.3
<100 м н/о +21.7 +12.8 57 +24 +24 комфорт 1007.4 1006.6
<100 м н/о +23.3 +12.2 50 +26 +26 жарко 1007.4 1006.6
<100 м н/о +25.0 +8.3 35 +25 +25 комфорт 1006.9 1006.3
<100 м н/о +24.4 +8.9 37 +25 +25 комфорт 1007.1 1006.3
<100 м н/о +24.4 +7.2 33 +25 +25 комфорт 1006.6 1005.9 +17.2 +25.6
<100 м н/о +25.6 +7.8 32 +26 +26 жарко 1006.4 1005.6
н/о н/о +23.3 +8.3 38 +24 +24 комфорт 1006.8 1005.9
н/о н/о +23.9 +8.9 38 +25 +25 комфорт 1007.0 1006.3
н/о н/о +23.3 +8.9 40 +25 +25 комфорт 1007.7 1007.0
н/о н/о +22.8 +9.4 42 +24 +24 комфорт 1008.3 1007.6
н/о н/о +22.2 +6.7 37 +23 +23 комфорт 1008.9 1008.0 +22.2 +26.1
н/о н/о +21.1 +6.7 39 +22 +22 комфорт 1009.7 1009.0
н/о н/о +20.0 +7.2 43 +21 +21 комфорт 1010.2 1009.3
н/о н/о +19.4 +7.8 47 +20 +20 1010.5 1009.7
н/о н/о +18.3 +8.3 52 +18 +18 1010.9 1010.0
н/о н/о +17.8 +7.8 52 +18 +18 1011.0 1010.3
н/о н/о +17.8 +7.8 52 +18 +18 1011.1 1010.3 +17.2 +22.2
н/о н/о +17.2 +7.8 54 +17 +17 1011.1 1010.3
н/о н/о +16.7 +7.2 53 +17 +17 1010.9 1010.0
н/о н/о +16.7 +6.7 52 +17 +17 1011.1 1010.3
н/о н/о +15.6 +6.7 55 +16 +16 1011.3 1010.7
н/о н/о +15.0 +7.2 60 +15 +15 1011.9 1011.4
н/о н/о +15.6 +7.2 57 +16 +16 1012.3 1011.7 +15.0 +17.8
н/о н/о +17.8 +6.7 48 +18 +18 1012.6 1011.7
н/о н/о +18.9 +6.1 43 +19 +19 1013.1 1012.4
н/о н/о +20.6 +5.6 37 +21 +21 комфорт 1013.4 1012.7
н/о н/о +21.7 +5.0 34 +22 +22 комфорт 1013.1 1012.4
н/о н/о +21.7 +3.9 31 +22 +22 комфорт 1013.3 1012.4
н/о н/о +21.7 +3.9 31 +22 +22 комфорт 1013.0 1012.4 +15.6 +22.8
н/о н/о +22.2 +3.9 30 +22 +22 комфорт 1012.8 1012.0
н/о н/о +22.2 +2.8 28 +22 +22 комфорт 1013.2 1012.4
н/о н/о +16.7 +5.6 48 +17 +17 1017.1 1016.4
н/о н/о +16.1 +5.6 50 +16 +16 1017.8 1017.1
н/о н/о +11.7 +6.1 68 +11 +11 1019.5 1018.8
н/о н/о +11.7 +6.1 68 +11 +11 1020.0 1019.1
н/о н/о +11.7 +5.6 66 +11 +11 1020.4 1019.8
н/о н/о +12.2 +5.6 64 +12 +12 1021.1 1020.5 +11.7 +22.2
н/о н/о +13.9 +5.6 57 +14 +14 1021.4 1020.8
н/о н/о +20.0 +8.3 47 +21 +21 комфорт 1022.1 1021.5
н/о н/о +21.7 +8.9 44 +23 +23 комфорт 1021.8 1021.2 +11.7 +21.7
Местоположение метеостанции Inner Harbor: широта 39.2833 долгота -76.6167 высота над уровнем моря 6 м.
В архиве по умолчанию представлена погода в Балтиморе за последние 1-2 суток. Обновление информации о фактической погоде в базе происходит ежечасно! Архивные данные за месяц целиком и за предыдущие месяцы Вы можете получить, выбрав интересующий диапазон дат из раскрывающегося списка и нажав кнопку "Ввод!".
Внимание! Архив погоды МЕТАР в базе сайта по станциям, не включенным в климатический монитор, хранится не более 60 дней. Нет смысла пытаться выбрать более раннюю дату.
*Определитесь, кто Вы:
Внимание! Время в таблицах - местное (без учета летнего времени). Для получения всемирного времени необходимо вычесть поправку, которая равна -5 ч.
Смотрите также архив погоды в соседних городах и на ближайших метеорологических станциях:
Партнеры нашего сайта:      
Пояснения к столбцам:
  • Ветер - указаны скорость ветра в м/с - средняя за 10 мин, порывы в срок и между сроками (в фигурных скобках) и направление, откуда дует ветер: С - северный,
  • СВ - северо-восточный, В - восточный, ЮВ - юго-восточный, Ю - южный, ЮЗ - юго-западный, З - западный, СЗ - северо-западный.
  • Видимость - горизонтальная дальность видимости в метрах или километрах. При видимости от 1 до 10 км при отсутствии осадков обычно наблюдается дымка, при ухудшении видимости до 1 км и менее - туман. В сухую погоду видимость может ухудшаться дымом, пылью или мглою.
  • Явления - указаны атмосферные явления, наблюдавшиеся в срок или в последний час перед сроком; фигурными скобками обозначены явления, наблюдавшиеся между сроками (за 1-3 часа до срока); квадратными скобками обозначены град или гололедные отложения с указанием их диаметра в мм.
  • Облачность - указаны через наклонную черту общая и нижняя облачность в баллах и высота нижней границы облаков в метрах; квадратными скобками обозначены формы облаков: Ci - перистые, Cs - перисто-слоистые, Cc - перисто-кучевые, Ac - высококучевые, As - высокослоистые, Sc - слоисто-кучевые, Ns - слоисто-дождевые, Cu - кучевые, Cb - кучево-дождевые. Подробнее классификацию облаков см. в Атласе облаков (PDF).
  • T - Температура воздуха - температура, измеренная на высоте 2 м над землей.
  • Td - Температура точки росы - температура, при понижении до которой содержащийся в воздухе водяной пар достигнет насыщения.
  • f - Относительная влажность воздуха - влажноcть воздуха, измеренная на высоте 2 м над землей.
  • Te - Эффективная температура - температура, которую ощущает одетый по сезону человек в тени. Характеристика душности погоды. При расчете учитывается влияние влажности воздуха и скорости ветра на теплоощущения человека.
  • Tes - Эффективная температура на солнце - температура, которую ощущает человек, с поправкой на солнечный нагрев. Характеристика знойности погоды. Зависит от высоты солнца над горизонтом, облачности и скорости ветра. Ночью, в пасмурную погоду, а также при ветре 12 м/с и более поправка равна нулю.
  • P - Атмосферное давление - приведенное к уровню моря атмосферное давление.
  • Po - Атмосферное давление - измеренное на уровне метеостанции атмосферное давление.
  • Tmin - Минимальная температура - минимум температуры воздуха на высоте 2 м над землей.
  • Tmax - Максимальная температура - максимум температуры воздуха на высоте 2 м над землей.
  • R - Количество осадков - Количество выпавших осадков за период времени, мм. При наведении курсора мыши на число - период времени, за который выпало указанное количество осадков.
  • R24 - Количество осадков - Количество выпавших осадков за 24 часа, мм.
  • S - Снежный покров - Высота снежного покрова, см. При наведении курсора мыши на число - состояние снежного покрова и степень покрытия местности в баллах.